Regional Weather Roundup
Issued by NWS

Home | Current Version | Previous Version | Graphics & Text | Print | Product List | Glossary On
Versions: 1 2 3 4 5 6 7 8 9 10 11 12 13 14 15 16 17 18 19 20 21 22 23 24 25 26 27 28 29 30 31 32 33 34 35 36 37 38 39 40 41 42 43 44 45 46 47 48 49 50
000
ASUS43 KDMX 241106
RWRIA

WEATHER ROUNDUP FOR IOWA
NATIONAL WEATHER SERVICE DES MOINES IA
600 AM CDT MON APR 24 2017

NOTE: "FAIR" INDICATES FEW OR NO CLOUDS BELOW 12,000 FEET WITH NO
SIGNIFICANT WEATHER AND/OR OBSTRUCTIONS TO VISIBILITY.

* - THESE STATIONS ARE NOT NWS STATIONS...THUS NOT UNDER NWS
QUALITY CONTROL.  THEY ALSO DO NOT REPORT WEATHER SUCH
AS PRECIPITATION OR FOG.

IAZ001>003-012>014-020>022-031>034-043>046-241200-
   NORTHWEST IOWA

CITY           SKY/WX    TMP DP  RH WIND       PRES   REMARKS
CARROLL *      CLOUDY    46  37  71 S8        29.81F
CHEROKEE *     CLOUDY    50  36  57 S15       29.77S
DENISON *      CLOUDY    50  36  57 S9G15     29.81S
LE MARS *      PTCLDY    54  36  50 S17G24    29.74F
ORANGE CITY *  CLOUDY    48  37  66 S9        29.74S
SHELDON *      MOCLDY    50  36  57 S14       29.73S
SIOUX CITY     PTCLDY    51  37  58 SE14      29.74F
SPENCER        CLOUDY    48  35  60 MISG      29.77F
STORM LAKE *   CLOUDY    48  36  61 S16       29.78S
$$

IAZ055>058-069>071-079>083-090>094-241200-
   SOUTHWEST IOWA

CITY           SKY/WX    TMP DP  RH WIND       PRES   REMARKS
ATLANTIC *     CLOUDY    48  37  66 S13       29.83F
AUDUBON *      MOCLDY    50  37  62 S9        29.83F
CLARINDA *     MOCLDY    43  37  81 S6        29.88S
COUNCIL BLFS * MOCLDY    46  37  71 SE9       29.80F
CRESTON *      CLOUDY    48  34  57 S12       29.88S
HARLAN  *      CLOUDY    50  37  62 S13G20    29.83F
LAMONI         CLOUDY    47  33  58 SE7       29.90S
RED OAK *      CLOUDY    48  37  66 S8        29.84F
SHENANDOAH *   CLOUDY    50  37  62 S14       29.84F
$$

IAZ047>049-059>061-072>074-084-241200-
   CENTRAL IOWA

CITY           SKY/WX    TMP DP  RH WIND       PRES   REMARKS
AMES           CLOUDY    45  37  73 S8        29.86F
ANKENY *       MOCLDY    46  36  66 S7        29.89S
BOONE *        MOCLDY    46  36  66 S10       29.85S
CHARITON *     MOCLDY    45  34  65 S8        29.90F
DES MOINES     CLOUDY    50  33  52 SE9       29.88F
GRINNELL*      PTCLDY    47  33  57 S9        29.91F
KNOXVILLE *    CLOUDY    48  34  57 S7        29.89F
MARSHALLTOWN   CLOUDY    49  33  54 S10       29.88F
NEWTON *       PTCLDY    46  34  61 S8        29.89F
PELLA *        CLOUDY    49  33  54 S8        29.92F
PERRY *          N/A     47  33  58 S10       29.85S
$$

IAZ004>006-015-016-023>025-035-036-241200-
   NORTH CENTRAL IOWA

CITY           SKY/WX    TMP DP  RH WIND       PRES   REMARKS
ALGONA *       CLOUDY    50  36  57 S12       29.82S
CLARION *      MOCLDY    48  34  57 S10       29.84S
ESTHERVILLE    CLOUDY    47  35  63 S13       29.79S
FORT DODGE *   MOCLDY    52  32  46 S8        29.83F
MASON CITY     CLOUDY    44  35  70 S7        29.86F
FOREST CITY *    N/A     43  36  75 S7        29.84S
WEBSTER CITY * CLOUDY    48  36  61 S10       29.83S
IOWA FALLS *     N/A     49  35  56 S10       29.87F
$$

IAZ007>011-017>019-026>030-037>042-050>054-066-241200-
   NORTHEAST IOWA

CITY           SKY/WX    TMP DP  RH WIND       PRES   REMARKS
CEDAR RAPIDS   CLOUDY    43  34  70 SE6       29.93S
CHARLES CITY * MOCLDY    48  32  53 SE9       29.88F
CLINTON *      CLOUDY    41  33  73 E7        29.98R
DECORAH *      CLOUDY    48  32  53 S7        29.89F
DUBUQUE        CLEAR     47  32  56 S8        29.96S
MONTICELLO *   CLOUDY    39  34  81 CALM      29.95S
OELWEIN *      CLOUDY    43  34  70 SE12      29.91F
WATERLOO       CLOUDY    45  33  63 SE6       29.89F
$$

IAZ064-065-067-068-078-241200-
   EAST CENTRAL IOWA

CITY           SKY/WX    TMP DP  RH WIND       PRES   REMARKS
DAVENPORT      CLOUDY    46  28  49 SE5       29.97S
IOWA CITY      CLOUDY    43  35  73 CALM      29.96S
MT. PLEASANT * CLOUDY    47  31  53 SE6       29.95S
MUSCATINE *    PTCLDY    39  36  87 CALM      29.96F
QUAD CITIES    CLOUDY    41  34  76 CALM      29.97R
$$

IAZ062-063-075>077-085>089-095>099-241200-
   SOUTHEAST IOWA

CITY           SKY/WX    TMP DP  RH WIND       PRES   REMARKS
BURLINGTON     CLEAR     49  32  52 SE5       29.95S
FAIRFIELD *    CLOUDY    48  27  43 S7        29.93S
FORT MADISON * CLOUDY    52  30  43 SE6       29.96S
KEOKUK *       CLEAR     45  39  81 CALM      29.95R
OSKALOOSA *      N/A     42  32  68 SE7       29.92F
CENTERVILLE *    N/A     45  32  61 CALM      29.94S
OTTUMWA        CLOUDY    45  32  60 S7        29.92F
WASHINGTON *   CLOUDY    43  30  61 SE8       29.95S
$$

ABBREVIATIONS USED IN REMARKS
   TC - TEMPERATURES IN CELSIUS
  WCI - WIND CHILL INDEX
   HX - HEAT INDEX
  VSB - VISIBILITY
$$




USA.gov is the U.S. government's official web portal to all federal, state and local government web resources and services.